[[{"header":{"parameterUnit":"m.s-1","parameterCategory":1,"la1":30.2991,"la2":30.254,"lo1":-89.0895,"lo2":-89.0444,"dy":0.0017,"dx":0.0017,"nx":28,"ny":28,"refTime":"2025-06-04T21:00:00:Z","depth":0,"parameterNumber":2,"parameterNumberName":"U-component_of_WINDS"},"data":[0,0,0,0,0,0,0,0,0,0,0,0,0,0,0,0,0,0,0,0,0,0,0,0,0,0,0,0,0,0,0,0,0,0,0,0,0,0,0,0,0,0,0,0,0,0,0,0,0,0,0,0,0,0,0,0,0,0,-2.0712,-2.0713,0,-2.0768,-2.0768,-2.0769,-2.0756,-2.0755,-2.0754,-2.0753,-2.0809,-2.0812,-2.0814,0,0,0,0,0,0,0,0,0,0,0,0,0,-2.0594,-2.0596,-2.0712,-2.0713,-2.0713,-2.0768,-2.0768,-2.0769,-2.0756,-2.0755,-2.0754,-2.0752,-2.0808,-2.0811,-2.0814,0,0,0,0,0,0,0,0,0,0,0,0,0,-2.0647,-2.0597,-2.0712,-2.0713,-2.0714,-2.0767,-2.0768,-2.0769,-2.0756,-2.0755,-2.0753,-2.0752,-2.0808,-2.0811,-2.0815,-2.087,0,0,-2.0826,-2.0828,0,0,0,0,0,0,0,0,-2.0644,-2.0651,-2.0713,-2.0713,-2.0714,-2.0753,-2.0747,-2.0803,-2.0757,-2.074,-2.0753,-2.0751,-2.0792,-2.0797,-2.0811,-2.0872,-2.0875,-2.0827,-2.0829,-2.083,-2.0832,0,0,0,0,0,0,0,-2.064,-2.0649,-2.0734,-2.0713,-2.0715,-2.0711,-2.0717,-2.0758,-2.0774,-2.0742,-2.0741,-2.0748,-2.0792,-2.0807,-2.0812,-2.0876,-2.0826,-2.083,-2.0832,-2.0834,-2.0985,-2.0986,0,0,0,0,0,0,-2.0636,-2.0646,-2.0732,-2.0736,-2.0674,-2.0715,-2.0721,-2.0742,-2.0774,-2.0777,-2.0749,-2.0747,-2.0802,-2.0808,-2.0814,-2.088,-2.083,-2.0834,-2.0836,-2.0983,-2.0985,-2.0987,0,0,0,0,0,0,-2.0633,-2.0644,-2.073,-2.0691,-2.0701,-2.0718,-2.0742,-2.0744,-2.0759,-2.0779,-2.0782,-2.0761,-2.0801,-2.0809,-2.0856,-2.0882,-2.0836,-2.0839,-2.0981,-2.0984,-2.0986,-2.1012,0,0,0,0,0,0,-2.063,-2.0643,-2.0664,-2.0691,-2.0703,-2.0771,-2.0744,-2.0747,-2.0766,-2.0764,-2.0792,-2.0795,-2.08,-2.085,-2.086,-2.0886,-2.0842,-2.0979,-2.0982,-2.0985,-2.1009,-2.1015,-2.1021,0,0,0,0,0,-2.0626,-2.0669,-2.0665,-2.0676,-2.073,-2.0773,-2.078,-2.0785,-2.0768,-2.0789,-2.0802,-2.0794,-2.0877,-2.0855,-2.0866,-2.0893,-2.0977,-2.0981,-2.0985,-2.1006,-2.1014,-2.1021,0,0,0,0,0,0,-2.0645,-2.0673,-2.0669,-2.0722,-2.0745,-2.0771,-2.0798,-2.0793,-2.0821,-2.0818,-2.0823,-2.0829,-2.0877,-2.089,-2.0865,-2.0948,-2.0925,-2.0931,-2.0938,-2.0945,-2.0951,-2.0946,-2.0845,0,0,0,0,0,-2.0655,-2.0688,-2.071,-2.0755,-2.0767,-2.0781,-2.0799,-2.0801,-2.0825,-2.0835,-2.0851,-2.0874,-2.0906,-2.0926,-2.0956,-2.1011,-2.1017,-2.1035,-2.1041,-2.1046,-2.1051,-2.108,-2.1089,-2.1,-2.1,-2.1,0,0,-2.0677,-2.0696,-2.0717,-2.076,-2.0778,-2.0811,-2.0789,-2.0825,-2.0849,-2.084,-2.0885,-2.0898,-2.0925,-2.0976,-2.0999,-2.0988,-2.1077,-2.1051,-2.1055,-2.1057,-2.1085,-2.1094,-2.1101,-2.1003,-2.1002,-2.1002,0,0,-2.0734,-2.0752,-2.0791,-2.081,-2.0837,-2.0846,-2.0855,-2.0881,-2.0889,-2.0935,-2.0929,-2.0958,-2.1012,-2.1031,-2.1048,-2.1111,-2.1104,-2.1121,-2.1151,-2.118,-2.1186,-2.1193,-2.1215,-2.1222,-2.1126,-2.1126,-2.1126,0,-2.0757,-2.0807,-2.0812,-2.0848,-2.0867,-2.0861,-2.09,-2.0918,-2.0954,-2.0967,-2.0954,-2.1021,-2.1039,-2.1094,-2.1109,-2.1123,-2.1134,-2.1117,-2.1185,-2.1191,-2.1197,-2.1218,-2.1226,-2.1128,-2.1128,-2.1127,-2.1127,0,-2.0834,-2.0869,-2.0897,-2.0932,-2.0954,-2.0992,-2.1002,-2.1024,-2.1024,-2.1034,-2.108,-2.1101,-2.1134,-2.1148,-2.1148,-2.1203,-2.1195,-2.1184,-2.116,-2.1207,-2.1227,-2.1235,-2.113,-2.113,-2.1129,-2.1129,0,0,-2.0904,-2.0941,-2.0951,-2.0966,-2.0996,-2.1023,-2.106,-2.1093,-2.1112,-2.1137,-2.1168,-2.1214,-2.1203,-2.1222,-2.1225,-2.125,-2.1298,-2.1235,-2.1236,-2.1246,-2.1359,-2.1366,-2.1376,-2.1294,-2.1296,-2.1297,-2.1356,0,-2.0962,-2.1028,-2.1034,-2.1093,-2.1124,-2.1118,-2.1151,-2.1172,-2.1183,-2.1211,-2.1222,-2.1254,-2.1238,-2.125,-2.1274,-2.1287,-2.1321,-2.1283,-2.1322,-2.1324,-2.1315,-2.1386,-2.1395,-2.145,-2.1364,-2.1365,-2.1366,0,-2.104,-2.1067,-2.1129,-2.1154,-2.1167,-2.1196,-2.1227,-2.1254,-2.1278,-2.1284,-2.1305,-2.1304,-2.1342,-2.1318,-2.137,-2.1344,-2.1361,-2.1369,-2.1372,-2.1375,-2.1347,-2.139,-2.1467,-2.1475,-2.1379,-2.1378,-2.1377,0,-2.1083,-2.1135,-2.1179,-2.1193,-2.1223,-2.1243,-2.1257,-2.128,-2.1299,-2.1326,-2.1338,-2.1369,-2.1386,-2.141,-2.1417,-2.1399,-2.1469,-2.1445,-2.1474,-2.1474,-2.1488,-2.1487,-2.1568,-2.15,-2.15,-2.15,-2.15,0,-2.1148,-2.1186,-2.1199,-2.1226,-2.1268,-2.1274,-2.1316,-2.1328,-2.1348,-2.1377,-2.1374,-2.1401,-2.141,-2.1438,-2.1444,-2.1486,-2.1494,-2.1499,-2.15,-2.1499,-2.1498,-2.1509,-2.1505,-2.1502,-2.1502,-2.1501,-2.1501,0,-2.1203,-2.1214,-2.1261,-2.1286,-2.1293,-2.1323,-2.1344,-2.137,-2.1379,-2.1416,-2.1425,-2.144,-2.1473,-2.1483,-2.1523,-2.1527,-2.1576,-2.1574,-2.1568,-2.1568,-2.1596,-2.1593,-2.1686,-2.1698,-2.1623,-2.1624,-2.1624,0,-2.1244,-2.1273,-2.13,-2.1319,-2.1334,-2.1365,-2.1384,-2.1391,-2.1412,-2.1441,-2.1463,-2.1496,-2.1523,-2.1577,-2.1591,-2.1622,-2.162,-2.1651,-2.1624,-2.1622,-2.1619,-2.1617,-2.162,-2.1655,-2.1656,-2.1657,-2.1657,0,-2.1313,-2.1317,-2.1345,-2.1376,-2.1399,-2.1423,-2.1447,-2.1463,-2.1472,-2.1496,-2.153,-2.155,-2.1591,-2.1624,-2.1655,-2.1669,-2.1665,-2.1665,-2.1673,-2.1672,-2.1667,-2.1669,-2.1581,-2.1663,-2.1662,-2.1662,-2.1662,-2.1661,-2.1362,-2.1387,-2.1411,-2.1442,-2.146,-2.1482,-2.1507,-2.152,-2.1548,-2.1582,-2.1584,-2.1621,-2.1644,-2.1685,-2.1701,-2.1729,-2.172,-2.1732,-2.1735,-2.1738,-2.174,-2.1663,-2.1735,-2.1735,-2.1735,-2.1735,-2.1735,0,-2.1431,-2.1446,-2.1475,-2.1507,-2.1532,-2.1526,-2.1551,-2.1572,-2.1605,-2.1627,-2.1653,-2.1692,-2.1723,-2.174,-2.1771,-2.1791,-2.179,-2.1799,-2.1797,-2.18,-2.1747,-2.1736,-2.1799,-2.1799,-2.1799,-2.1799,-2.1799,-2.1799,-2.147,-2.1512,-2.1518,-2.1569,-2.1584,-2.162,-2.1634,-2.1654,-2.1672,-2.1715,-2.1741,-2.1752,-2.1772,-2.1805,-2.1833,-2.1837,-2.1849,-2.1859,-2.1862,-2.1811,-2.1804,-2.1798,-2.1788,-2.1861,-2.1861,-2.1913,-2.1914,-2.1914]},{"header":{"parameterUnit":"m.s-1","parameterCategory":1,"la1":30.2991,"la2":30.254,"lo1":-89.0895,"lo2":-89.0444,"dy":0.0017,"dx":0.0017,"nx":28,"ny":28,"refTime":"2025-06-04T21:00:00:Z","depth":0,"parameterNumber":3,"parameterNumberName":"V-component_of_WINDS"},"data":[0,0,0,0,0,0,0,0,0,0,0,0,0,0,0,0,0,0,0,0,0,0,0,0,0,0,0,0,0,0,0,0,0,0,0,0,0,0,0,0,0,0,0,0,0,0,0,0,0,0,0,0,0,0,0,0,0,0,2.0959,2.0959,0,2.0926,2.0926,2.0926,2.0875,2.0874,2.0873,2.0872,2.0838,2.0838,2.0838,0,0,0,0,0,0,0,0,0,0,0,0,0,2.0978,2.0978,2.0959,2.0959,2.0958,2.0926,2.0926,2.0925,2.0875,2.0874,2.0873,2.0872,2.0838,2.0838,2.0838,0,0,0,0,0,0,0,0,0,0,0,0,0,2.096,2.0978,2.0959,2.0929,2.0926,2.0926,2.0926,2.0925,2.0875,2.0874,2.0873,2.0872,2.0838,2.0838,2.0838,2.0864,0,0,2.0838,2.0838,0,0,0,0,0,0,0,0,2.0961,2.0959,2.0934,2.0931,2.0928,2.0903,2.092,2.0905,2.0876,2.0895,2.0872,2.0871,2.0861,2.0859,2.0856,2.0863,2.0861,2.0838,2.0838,2.0838,2.0837,0,0,0,0,0,0,0,2.0962,2.096,2.0946,2.0934,2.093,2.0918,2.0913,2.0917,2.0886,2.0893,2.0889,2.0886,2.0859,2.0856,2.0854,2.0861,2.0838,2.0838,2.0837,2.0837,2.0887,2.0889,0,0,0,0,0,0,2.0968,2.0962,2.0947,2.0945,2.0941,2.0918,2.0914,2.0913,2.0886,2.088,2.0887,2.0884,2.0857,2.0855,2.0853,2.0881,2.0838,2.0837,2.0837,2.0886,2.0888,2.0889,0,0,0,0,0,0,2.0969,2.0967,2.0948,2.0952,2.0949,2.0919,2.0919,2.0913,2.0909,2.0881,2.0875,2.089,2.0856,2.0853,2.0862,2.0879,2.0837,2.0837,2.0884,2.0887,2.0888,2.0939,0,0,0,0,0,0,2.0969,2.0968,2.0977,2.0953,2.0949,2.0958,2.092,2.0913,2.091,2.0905,2.0882,2.0877,2.0854,2.0862,2.0862,2.0878,2.0837,2.0883,2.0885,2.0888,2.0935,2.0942,2.0948,0,0,0,0,0,2.097,2.0993,2.0978,2.0976,2.096,2.0959,2.0957,2.093,2.0911,2.092,2.0903,2.0878,2.0878,2.0864,2.0863,2.088,2.0881,2.0885,2.0888,2.0932,2.0941,2.0948,0,0,0,0,0,0,2.1019,2.0989,2.0972,2.0987,2.0976,2.095,2.0961,2.094,2.0934,2.093,2.0897,2.0892,2.0905,2.0893,2.0878,2.0904,2.0876,2.0879,2.091,2.0918,2.0924,2.0926,2.0837,0,0,0,0,0,2.1032,2.1033,2.1007,2.1023,2.1018,2.0991,2.0989,2.097,2.0957,2.0952,2.0934,2.0923,2.092,2.0919,2.0915,2.0934,2.0928,2.0945,2.0952,2.0957,2.096,2.0968,2.0976,2.0899,2.0899,2.0899,0,0,2.1058,2.1042,2.1044,2.1032,2.1021,2.1023,2.0987,2.0991,2.0992,2.0952,2.0959,2.0946,2.0931,2.0945,2.095,2.0935,2.098,2.0961,2.0966,2.0965,2.0972,2.098,2.0986,2.0902,2.0901,2.0901,0,0,2.1106,2.1094,2.1106,2.1096,2.108,2.1062,2.1065,2.1043,2.1032,2.1039,2.1009,2.101,2.1007,2.0997,2.0991,2.1037,2.1014,2.1037,2.107,2.1079,2.1085,2.109,2.1105,2.1111,2.104,2.104,2.104,0,2.114,2.1142,2.1115,2.112,2.1115,2.1081,2.1092,2.1084,2.1068,2.1065,2.1049,2.1044,2.1031,2.1042,2.1053,2.105,2.1052,2.1038,2.1086,2.1091,2.1095,2.1109,2.1115,2.1043,2.1042,2.1042,2.1042,0,2.1184,2.1186,2.1198,2.1183,2.118,2.1188,2.1162,2.1163,2.1144,2.1128,2.1135,2.1119,2.1111,2.1113,2.1095,2.1121,2.1112,2.1092,2.1063,2.1106,2.1118,2.1124,2.1047,2.1046,2.1045,2.1044,0,0,2.126,2.1231,2.1236,2.1228,2.1209,2.121,2.1217,2.121,2.121,2.1201,2.1205,2.1204,2.1185,2.1179,2.1159,2.1168,2.1204,2.1146,2.1145,2.1156,2.1231,2.1245,2.1252,2.1189,2.119,2.1191,2.1232,0,2.1303,2.1313,2.129,2.1306,2.1307,2.1275,2.1281,2.127,2.1255,2.1254,2.1238,2.1237,2.1213,2.1208,2.1215,2.1198,2.1218,2.1195,2.1192,2.1192,2.1195,2.1259,2.1274,2.1313,2.1237,2.1238,2.1238,0,2.1354,2.1347,2.1363,2.1343,2.1343,2.1349,2.134,2.134,2.1327,2.1315,2.1309,2.1287,2.1293,2.1267,2.1273,2.1258,2.1256,2.1248,2.1248,2.1246,2.1217,2.1257,2.1325,2.1331,2.1246,2.1245,2.1245,0,2.1406,2.1401,2.141,2.1406,2.1382,2.1387,2.1378,2.1363,2.1361,2.1353,2.1351,2.1345,2.1341,2.1336,2.1313,2.1296,2.1322,2.1294,2.1312,2.1313,2.1317,2.1317,2.1386,2.1319,2.1319,2.1319,2.1319,0,2.1455,2.1466,2.1434,2.1439,2.145,2.1424,2.1436,2.1423,2.1411,2.1413,2.1385,2.1388,2.1358,2.1357,2.1339,2.1347,2.1346,2.1336,2.1331,2.1338,2.1339,2.1335,2.1331,2.132,2.132,2.132,2.132,0,2.1515,2.1493,2.1501,2.1479,2.1474,2.1483,2.1464,2.1468,2.1453,2.1456,2.1455,2.143,2.1428,2.1405,2.1398,2.1386,2.14,2.139,2.1404,2.1401,2.1419,2.1418,2.1486,2.1493,2.1424,2.1425,2.1425,0,2.1547,2.1555,2.1534,2.1533,2.1525,2.1525,2.1523,2.1497,2.1495,2.1481,2.1487,2.1482,2.1477,2.1476,2.1457,2.1451,2.144,2.1465,2.1439,2.1445,2.1439,2.1438,2.1438,2.1469,2.147,2.1471,2.1472,0,2.1606,2.1595,2.1592,2.1586,2.1583,2.1577,2.1568,2.157,2.1542,2.1541,2.1539,2.1535,2.1528,2.1524,2.1515,2.1505,2.1483,2.148,2.1484,2.149,2.1497,2.1492,2.1418,2.1478,2.1478,2.1477,2.1477,2.1477,2.1651,2.1657,2.1643,2.1641,2.1632,2.1625,2.1628,2.1613,2.1611,2.1603,2.1588,2.1588,2.1575,2.1561,2.1553,2.1552,2.154,2.1545,2.1546,2.1548,2.1551,2.1499,2.1551,2.1551,2.155,2.155,2.155,0,2.1708,2.1698,2.1696,2.1685,2.1684,2.1665,2.1655,2.1655,2.1655,2.1645,2.1641,2.1638,2.1635,2.1616,2.161,2.1613,2.1603,2.1612,2.1611,2.1609,2.1563,2.156,2.162,2.162,2.162,2.162,2.162,2.162,2.1737,2.1744,2.1732,2.1736,2.1725,2.1725,2.1721,2.1715,2.1706,2.1705,2.1702,2.169,2.1676,2.1669,2.1665,2.1659,2.1658,2.167,2.1661,2.1619,2.1612,2.1605,2.1602,2.167,2.1671,2.1707,2.1707,2.1707]}]]